Terug naar catalogus

ATLAS AGENA R/B

ActiefMEO
NORAD 6318·ROCKET BODY·🇺🇸 United States

Gelanceerd Dec 20, 1972 vanaf Cape Canaveral Space Force Station

Loading…

Volgende Passages (komende 24 uur)

TLE

VersSource: Space-Track

Epoch: Sep 13, 2026, 22:59 UTC

1 06318U 72101B   26256.95784790 -.00000211  00000-0  00000-0 0  9994
2 06318   8.4675 219.4621 1256804 192.4988 163.9292  1.02316640 28232

Volg ATLAS AGENA R/B in realtime met AllMySat

Download on the App Store